EUTELSAT 8 WEST B

Last updated on Thu Jul 03 2025 00:02:46 GMT+0000 (Coordinated Universal Time)

1 40875U 15039B 25183.56505769 -.00000058 00000+0 00000+0 0 9996 2 40875 0.0627 8.8231 0003724 91.2161 16.2237 1.00271403 36153
UTC large
Height (km)
Speed (km/s)
/
Latitude / Longitude
Inclination (degrees)
Orbital Period (minutes)
Azimuth
Elevation
Range (km)
Doppler Factor

Next 0 passes for location: London (51.5072 / 0.1276)

Sorry there are no passes over London.